Flag for Norway Weather past 2 weeks in Molde, Norway

Now
48 °F

Light rain. Broken clouds.


Feels Like: 48 °F
Forecast: 44 / 51 °F
Wind: 2 mph from South

Location: Molde / Aro

Current Time: May 25, 2015 at 10:20:16 AM

Latest Report: May 25, 2015 at 9:50 AM


Visibility: N/A

Pressure: 29.74 "Hg

Humidity: 82%

Dew point: 43 °F

Location of MoldeLocation

Historic Weather in Molde — Graph

°F

Molde temperature yesterday

Maximum temperature yesterday: 50 °F (at 2:20 PM)
Minimum temperature yesterday: 39 °F (at 1:50 AM)
Average temperature yesterday: 45 °F

Past Weeks' High & Low Weather Summary

 TemperatureHumidityPressure
High61 °F (May 12, 5:50 PM)94% (May 12, 8:50 AM)30.07 "Hg (May 12, 8:50 AM)
Low36 °F (May 15, 2:50 AM)29% (May 18, 5:20 PM)29.39 "Hg (May 19, 2:50 PM)
Average47 °F73%29.77 "Hg
* Reported May 10 8:20 AM — May 25 8:50 AM, Molde, Weather by CustomWeather, © 2015

Note: Actual official high and low records may vary slightly from our data, if they occured in-between our weather recording intervals... More about our weather records

Advertising

Molde weather history for previous 24 hours

 ConditionsComfort  
Time TempWeatherWind HumidityBarometerVisibility
8:50 AM
Mon, May 25
46 °FLight rain. Broken clouds.2 mph87%29.74 "HgN/A
8:20 AM45 °FLight rain. Broken clouds.3 mph93%29.74 "HgN/A
7:50 AM45 °FLight rain. Broken clouds.2 mph93%29.74 "HgN/A
7:20 AM45 °FLight rain. Broken clouds.5 mph93%29.74 "HgN/A
6:50 AM45 °FLight rain. Broken clouds.3 mph93%29.71 "HgN/A
6:20 AM43 °FLight rain. Broken clouds.5 mph93%29.71 "HgN/A
5:20 AM43 °FSprinkles. Broken clouds.5 mph93%29.71 "HgN/A
4:50 AM43 °FSprinkles. Mostly cloudy.5 mph93%29.71 "HgN/A
4:20 AM43 °FMostly cloudy.6 mph93%29.71 "HgN/A
3:50 AM43 °FSprinkles. Overcast.5 mph93%29.71 "HgN/A
3:20 AM43 °FSprinkles. Overcast.6 mph93%29.71 "HgN/A
2:50 AM43 °FOvercast.5 mph87%29.71 "HgN/A
2:20 AM43 °FMostly cloudy.5 mph87%29.71 "HgN/A
1:50 AM43 °FOvercast.6 mph87%29.71 "HgN/A
1:20 AM41 °FOvercast.2 mph93%29.71 "HgN/A
12:50 AM43 °FPassing clouds.2 mph87%29.74 "HgN/A
12:20 AM43 °FQuite cool.7 mph87%29.71 "HgN/A
11:50 PM
Sun, May 24
43 °FScattered clouds.2 mph93%29.71 "HgN/A
11:20 PM45 °FBroken clouds.2 mph87%29.71 "HgN/A
10:50 PM46 °FSprinkles. Broken clouds.1 mph87%29.71 "HgN/A
10:20 PM46 °FSprinkles. Partly sunny.3 mph87%29.71 "HgN/A
9:50 PM46 °FRain showers. Broken clouds.7 mph87%29.71 "HgN/A
9:20 PM45 °FRain. Broken clouds.9 mph93%29.71 "HgN/A
8:50 PM46 °FRain. Broken clouds.10 mph87%29.71 "HgN/A
8:20 PM46 °FRain. Broken clouds.12 mph87%29.71 "HgN/A
7:50 PM50 °FRain showers. Broken clouds.9 mph88%29.68 "HgN/A
7:20 PM50 °FSprinkles. Broken clouds.5 mph88%29.68 "HgN/A
6:50 PM50 °FSprinkles. Partly sunny.6 mph88%29.68 "HgN/A
6:20 PM50 °FSprinkles. Partly sunny.9 mph88%29.68 "HgN/A
5:50 PM48 °FPartly sunny.10 mph94%29.68 "HgN/A
5:20 PM48 °FSprinkles. Partly sunny.9 mph94%29.68 "HgN/A
4:50 PM50 °FLight rain. Partly sunny.7 mph88%29.68 "HgN/A
4:20 PM48 °FLight rain. Partly sunny.7 mph94%29.68 "HgN/A
3:50 PM48 °FLight rain. Broken clouds.6 mph87%29.68 "HgN/A
3:20 PM48 °FLight rain. Broken clouds.7 mph87%29.71 "HgN/A
2:50 PM50 °FLight rain. Partly sunny.8 mph82%29.71 "HgN/A
2:20 PM50 °FLight rain. Partly sunny.12 mph82%29.71 "HgN/A
1:50 PM48 °FLight rain. Partly sunny.10 mph82%29.71 "HgN/A
1:20 PM48 °FLight rain. Partly sunny.12 mph82%29.71 "HgN/A
12:50 PM48 °FLight rain. Partly sunny.12 mph82%29.71 "HgN/A
12:20 PM48 °FLight rain. Partly sunny.12 mph76%29.71 "HgN/A
11:50 AM48 °FLight rain. Partly sunny.14 mph76%29.71 "HgN/A
11:20 AM48 °FLight rain. Partly sunny.15 mph71%29.74 "HgN/A
10:50 AM48 °FLight rain. Partly sunny.17 mph66%29.74 "HgN/A
10:20 AM48 °FOvercast.18 mph66%29.74 "HgN/A
Weather by CustomWeather, © 2015

See weather overviewHow to use our weather pages